This is the latest recevied weather packets stored in our database for station/object K3SV. If no packets are shown the sender has not sent any weather packets the latest 10 day(s).
| Time | Temp. | Humidity | Pressure | Rain* | Wind** | Luminosity | Snow |
|---|---|---|---|---|---|---|---|
| 1778025238 | 26.67° C | 62% | 1014.6 hPa | 0 mm | - | 10 W/m² | - |
| 1778024934 | 27.22° C | 61% | 1014.5 hPa | 0 mm | - | 16 W/m² | - |
| 1778024632 | 27.22° C | 60% | 1014.2 hPa | 0 mm | - | 21 W/m² | - |
| 1778024328 | 27.78° C | 59% | 1014.2 hPa | 0 mm | - | 27 W/m² | - |
| 1778024026 | 28.33° C | 57% | 1014 hPa | 0 mm | - | 33 W/m² | - |
| 1778023723 | 28.89° C | 53% | 1013.8 hPa | 0 mm | - | 40 W/m² | - |
| 1778023421 | 28.89° C | 46% | 1013.9 hPa | 0 mm | - | 46 W/m² | - |
| 1778023118 | 28.89° C | 46% | 1014 hPa | 0 mm | - | 52 W/m² | - |
| 1778022815 | 28.89° C | 47% | 1013.8 hPa | 0 mm | - | 51 W/m² | - |
| 1778022513 | 28.89° C | 47% | 1013.8 hPa | 0 mm | - | 52 W/m² | - |
| 1778022210 | 28.89° C | 46% | 1013.9 hPa | 0 mm | - | 55 W/m² | - |
| 1778021902 | 29.44° C | 46% | 1013.9 hPa | 0 mm | - | 64 W/m² | - |
| 1778021599 | 29.44° C | 46% | 1013.9 hPa | 0 mm | - | 65 W/m² | - |
| 1778021294 | 29.44° C | 45% | 1014.2 hPa | 0 mm | - | 54 W/m² | - |
| 1778020992 | 30° C | 44% | 1014.3 hPa | 0 mm | - | 55 W/m² | - |
| 1778020689 | 30° C | 44% | 1014.1 hPa | 0 mm | - | 66 W/m² | - |
| 1778020386 | 30° C | 43% | 1014.1 hPa | 0 mm | - | 85 W/m² | - |
| 1778020082 | 30° C | 42% | 1014 hPa | 0 mm | - | 94 W/m² | - |
| 1778019778 | 30° C | 42% | 1014.2 hPa | 0 mm | - | 98 W/m² | - |
| 1778019475 | 30° C | 42% | 1014.2 hPa | 0 mm | - | 93 W/m² | - |
| 1778019171 | 30° C | 43% | 1014.1 hPa | 0 mm | - | 95 W/m² | - |
| 1778018868 | 30° C | 42% | 1014.1 hPa | 0 mm | - | 106 W/m² | - |
| 1778018565 | 31.11° C | 41% | 1013.9 hPa | 0 mm | - | 104 W/m² | - |
| 1778018263 | 31.11° C | 39% | 1013.9 hPa | 0 mm | - | 244 W/m² | - |
| 1778017961 | 31.67° C | 39% | 1014 hPa | 0 mm | - | 232 W/m² | - |
* Rain latest hour (hover to see other rain measurements)
** Current wind speed in m/s (hover to see current wind gust speed)